When you browse on this site, cookies collect data to enhance your experience and personalize the content and advertising you see.
Visit our Privacy Policy to learn more. By continuing to use the site, you agree to this use of cookies and data.
  • In Portugal
  • List of Countries
  • For 7 days
  • Water Temperature
  • Satellite Maps
  • Weather Map
  • Weather Widgets
  • user-avatar
    Login

    Hourly Weather Belmopan

    Today, 11 December, Tuesday

    Time Temperature Precipitation Wind Pressure Humidity
    00:00 +21°C° 0 mm 1 mps 759 mmHg 92%
    01:00 +20°C° 0 mm 1 mps 759 mmHg 92%
    02:00 +20°C° 0 mm 1 mps 759 mmHg 92%
    03:00 +20°C° 0 mm 1 mps 759 mmHg 92%
    04:00 +19°C° 0 mm 1 mps 759 mmHg 92%
    05:00 +19°C° 0 mm 1 mps 759 mmHg 92%
    06:00 +18°C° 0 mm 2 mps 760 mmHg 90%
    07:00 +19°C° 0 mm 2 mps 760 mmHg 83%
    08:00 +21°C° 0 mm 2 mps 761 mmHg 76%
    09:00 +23°C° 0 mm 2 mps 761 mmHg 68%
    10:00 +24°C° 0 mm 2 mps 760 mmHg 63%
    11:00 +26°C° 0 mm 2 mps 760 mmHg 57%
    12:00 +27°C° 0 mm 2 mps 760 mmHg 51%
    13:00 +27°C° 0 mm 2 mps 759 mmHg 51%
    14:00 +28°C° 0 mm 2 mps 759 mmHg 51%
    15:00 +28°C° 0 mm 2 mps 758 mmHg 51%
    16:00 +26°C° 0 mm 2 mps 758 mmHg 58%
    17:00 +24°C° 0 mm 1 mps 758 mmHg 66%
    18:00 +22°C° 0 mm 1 mps 758 mmHg 73%
    19:00 +22°C° 0 mm 1 mps 759 mmHg 75%
    20:00 +21°C° 0 mm 1 mps 759 mmHg 78%
    21:00 +20°C° 0 mm 1 mps 759 mmHg 80%
    22:00 +20°C° 0 mm 1 mps 759 mmHg 83%
    23:00 +19°C° 0 mm 1 mps 759 mmHg 85%

    Tomorrow, 12 December, Wednesday

    Time Temperature Precipitation Wind Pressure Humidity
    00:00 +19°C° 0 mm 1 mps 759 mmHg 87%
    01:00 +19°C° 0 mm 1 mps 758 mmHg 88%
    02:00 +18°C° 0 mm 1 mps 758 mmHg 89%
    03:00 +18°C° 0 mm 1 mps 758 mmHg 90%
    04:00 +16°C° 0 mm 1 mps 758 mmHg 91%
    05:00 +16°C° 0 mm 1 mps 758 mmHg 92%
    06:00 +16°C° 0 mm 1 mps 758 mmHg 92%
    07:00 +19°C° 0 mm 1 mps 758 mmHg 83%
    08:00 +21°C° 0 mm 1 mps 758 mmHg 73%
    09:00 +24°C° 0 mm 1 mps 759 mmHg 64%
    10:00 +25°C° 0 mm 1 mps 758 mmHg 58%
    11:00 +27°C° 0 mm 1 mps 757 mmHg 53%
    12:00 +29°C° 0 mm 1 mps 757 mmHg 48%
    13:00 +29°C° 0 mm 1 mps 756 mmHg 49%
    14:00 +29°C° 0 mm 1 mps 755 mmHg 50%
    15:00 +29°C° 0 mm 2 mps 754 mmHg 51%
    16:00 +27°C° 0 mm 1 mps 754 mmHg 60%
    17:00 +25°C° 0 mm 1 mps 754 mmHg 70%
    18:00 +24°C° 0 mm 1 mps 754 mmHg 79%
    19:00 +23°C° 0 mm 1 mps 754 mmHg 83%
    20:00 +23°C° 0 mm 1 mps 755 mmHg 87%
    21:00 +22°C° 0 mm 1 mps 755 mmHg 91%
    22:00 +22°C° 0.1 mm 1 mps 755 mmHg 93%
    23:00 +22°C° 0.1 mm 1 mps 755 mmHg 94%

    Day after tomorrow, 13 December, Thursday

    Time Temperature Precipitation Wind Pressure Humidity
    00:00 +22°C° 0.1 mm 1 mps 754 mmHg 96%
    01:00 +20°C° 0.1 mm 0 mps 754 mmHg 97%
    02:00 +20°C° 0.1 mm 0 mps 753 mmHg 97%
    03:00 +20°C° 0.1 mm 0 mps 753 mmHg 98%
    04:00 +20°C° 0 mm 0 mps 753 mmHg 98%
    05:00 +20°C° 0 mm 0 mps 753 mmHg 98%
    06:00 +20°C° 0 mm 0 mps 753 mmHg 98%
    07:00 +22°C° 0 mm 0 mps 753 mmHg 93%
    08:00 +23°C° 0 mm 0 mps 754 mmHg 88%
    09:00 +25°C° 0 mm 0 mps 754 mmHg 84%
    10:00 +28°C° 0 mm 1 mps 754 mmHg 75%
    11:00 +30°C° 0 mm 1 mps 753 mmHg 66%
    12:00 +32°C° 0 mm 2 mps 752 mmHg 58%
    13:00 +34°C° 0 mm 2 mps 752 mmHg 57%
    14:00 +34°C° 0 mm 2 mps 751 mmHg 55%
    15:00 +34°C° 0 mm 2 mps 750 mmHg 54%
    16:00 +31°C° 0.1 mm 2 mps 750 mmHg 64%
    17:00 +29°C° 0.1 mm 1 mps 751 mmHg 73%
    18:00 +26°C° 0.1 mm 1 mps 751 mmHg 83%
    19:00 +26°C° 0 mm 1 mps 751 mmHg 84%
    20:00 +26°C° 0 mm 1 mps 752 mmHg 84%
    21:00 +25°C° 0 mm 1 mps 752 mmHg 85%
    22:00 +25°C° 0 mm 1 mps 752 mmHg 88%
    23:00 +24°C° 0 mm 1 mps 752 mmHg 90%

    14 December, Friday

    Time Temperature Precipitation Wind Pressure Humidity
    00:00 +21°C° 0 mm 0 mps 752 mmHg 93%
    01:00 +21°C° 0 mm 0 mps 752 mmHg 94%
    02:00 +21°C° 0 mm 0 mps 752 mmHg 95%
    03:00 +21°C° 0 mm 0 mps 752 mmHg 96%
    04:00 +23°C° 0.3 mm 1 mps 752 mmHg 96%
    05:00 +22°C° 0.3 mm 1 mps 753 mmHg 97%
    06:00 +22°C° 0.3 mm 1 mps 753 mmHg 98%
    07:00 +24°C° 0.2 mm 1 mps 754 mmHg 91%
    08:00 +25°C° 0.2 mm 1 mps 755 mmHg 85%
    09:00 +27°C° 0.2 mm 2 mps 756 mmHg 78%
    10:00 +28°C° 0.4 mm 2 mps 755 mmHg 79%
    11:00 +28°C° 0.4 mm 2 mps 755 mmHg 80%
    12:00 +29°C° 0.4 mm 2 mps 755 mmHg 81%
    13:00 +28°C° 1.2 mm 2 mps 755 mmHg 83%
    14:00 +28°C° 1.2 mm 2 mps 754 mmHg 85%
    15:00 +28°C° 1.2 mm 2 mps 754 mmHg 87%
    16:00 +26°C° 0.9 mm 2 mps 754 mmHg 91%
    17:00 +25°C° 0.9 mm 2 mps 755 mmHg 94%
    18:00 +23°C° 0.9 mm 2 mps 756 mmHg 97%
    19:00 +23°C° 0.1 mm 2 mps 757 mmHg 96%
    20:00 +21°C° 0.1 mm 2 mps 757 mmHg 95%
    21:00 +21°C° 0.1 mm 2 mps 758 mmHg 94%
    22:00 +20°C° 0 mm 2 mps 758 mmHg 92%
    23:00 +20°C° 0 mm 2 mps 758 mmHg 89%

    15 December, Saturday

    Time Temperature Precipitation Wind Pressure Humidity
    00:00 +19°C° 0 mm 2 mps 759 mmHg 86%
    01:00 +19°C° 0 mm 2 mps 758 mmHg 83%
    02:00 +18°C° 0 mm 2 mps 758 mmHg 81%
    03:00 +18°C° 0 mm 2 mps 758 mmHg 78%
    04:00 +18°C° 0 mm 2 mps 759 mmHg 78%
    05:00 +18°C° 0 mm 2 mps 759 mmHg 77%
    06:00 +18°C° 0 mm 2 mps 759 mmHg 77%
    07:00 +19°C° 0 mm 2 mps 760 mmHg 73%
    08:00 +20°C° 0 mm 2 mps 761 mmHg 68%
    09:00 +21°C° 0 mm 2 mps 761 mmHg 64%
    10:00 +24°C° 0 mm 2 mps 761 mmHg 58%
    11:00 +25°C° 0 mm 2 mps 760 mmHg 53%
    12:00 +26°C° 0 mm 2 mps 760 mmHg 47%
    13:00 +27°C° 0 mm 2 mps 759 mmHg 46%
    14:00 +27°C° 0 mm 2 mps 758 mmHg 45%
    15:00 +28°C° 0 mm 1 mps 757 mmHg 44%
    16:00 +26°C° 0 mm 1 mps 758 mmHg 51%
    17:00 +24°C° 0 mm 1 mps 758 mmHg 59%
    18:00 +20°C° 0 mm 0 mps 758 mmHg 66%
    19:00 +21°C° 0 mm 1 mps 759 mmHg 69%
    20:00 +21°C° 0 mm 1 mps 759 mmHg 72%
    21:00 +20°C° 0 mm 1 mps 760 mmHg 75%
    22:00 +19°C° 0 mm 1 mps 760 mmHg 78%
    23:00 +19°C° 0 mm 1 mps 760 mmHg 80%

    16 December, Sunday

    Time Temperature Precipitation Wind Pressure Humidity
    00:00 +18°C° 0 mm 1 mps 759 mmHg 82%
    01:00 +18°C° 0 mm 1 mps 759 mmHg 83%
    02:00 +16°C° 0 mm 1 mps 759 mmHg 84%
    03:00 +16°C° 0 mm 1 mps 759 mmHg 84%
    04:00 +16°C° 0 mm 1 mps 759 mmHg 85%
    05:00 +16°C° 0 mm 1 mps 759 mmHg 85%
    06:00 +15°C° 0 mm 1 mps 760 mmHg 86%
    07:00 +18°C° 0 mm 1 mps 760 mmHg 77%
    08:00 +20°C° 0 mm 1 mps 761 mmHg 69%
    09:00 +22°C° 0 mm 1 mps 761 mmHg 61%
    10:00 +24°C° 0 mm 1 mps 761 mmHg 55%
    11:00 +26°C° 0 mm 1 mps 760 mmHg 50%
    12:00 +27°C° 0 mm 2 mps 759 mmHg 45%
    13:00 +28°C° 0 mm 1 mps 758 mmHg 44%
    14:00 +28°C° 0 mm 1 mps 758 mmHg 44%
    15:00 +28°C° 0 mm 1 mps 757 mmHg 43%
    16:00 +26°C° 0 mm 1 mps 757 mmHg 51%
    17:00 +24°C° 0 mm 1 mps 757 mmHg 59%
    18:00 +20°C° 0 mm 0 mps 758 mmHg 66%
    19:00 +20°C° 0 mm 0 mps 758 mmHg 68%
    20:00 +19°C° 0 mm 0 mps 758 mmHg 70%
    21:00 +19°C° 0 mm 0 mps 759 mmHg 71%
    22:00 +21°C° 0 mm 1 mps 759 mmHg 73%
    23:00 +20°C° 0 mm 1 mps 758 mmHg 74%
    Show more